User: anonymous   Login
Location: ?
(35.4996°N, 139.3166°E)
Time: 11:34:07
(UTC+00:00)
Language:

Cosmos 1340 - Orbit

View from above orbital plane
View from above orbital plane
View from above satellite
View from above satellite

Ground track
Ground track

The orbit data is extracted from the following two-line orbital elements,

1 13067U 82013A   24167.84159450  .00026251  00000-0  57306-3 0  9997
2 13067  81.1771  14.4236 0002576 159.7062 200.4284 15.44064779316641
Epoch (UTC): 15 June 2024 20:11:53
Eccentricity: 0.0002576
inclination: 81.1771°
perigee height: 432 km
apogee height: 436 km
right ascension of ascending node: 14.4236°
argument of perigee: 159.7062°
revolutions per day: 15.44064779
mean anomaly at epoch: 200.4284°
orbit number at epoch: 31664

The dashed part of the orbit path shows where the satellite is in the earth's shadow,  

DLR